User: anonymous   Login
Location: Cutler
(25.6150°N, 80.3110°W)
Time: 12:42:31
(UTC-04:00)
Language:

Cosmos 2360 Rocket - Orbit

View from above orbital plane
View from above orbital plane
View from above satellite
View from above satellite

Ground track
Ground track

The orbit data is extracted from the following two-line orbital elements,

1 25407U 98045B   18140.94836149 -.00000090 +00000-0 -21602-4 0  9998
2 25407 071.0128 051.6309 0006173 040.1128 320.0449 14.15772514023729
Epoch (UTC): 20 May 2018 22:45:38
Eccentricity: 0.0006173
inclination: 71.0128°
perigee height: 835 km
apogee height: 844 km
right ascension of ascending node: 51.6309°
argument of perigee: 40.1128°
revolutions per day: 14.15772514
mean anomaly at epoch: 320.0449°
orbit number at epoch: 2372

The dashed part of the orbit path shows where the satellite is in the earth's shadow,  

DLR